Dewpoint
46 46 46 47 48 49 48 43 34 43 47 34 34 31 34 38 35 38 39 39 38 32 30 30 30 26 25 26 32 32 33 33 29 28 31 32 33 32 33 31 30 32 29 24
45 46 46 47 49 50 46 38 36 44 42 26 29 33 34 36 35 34 38 39 39 39 32 30 31 30 28 31 31 33 34 34 28 26 29 32 31 32 34 36 36 32 30 28
45 46 46 48 50 50 44 36 31 38 39 33 27 32 32 34 38 36 37 39 39 38 37 37 34 31 34 32 32 40 37 31 28 21 24 30 31 31 32 35 33 32 32 31
45 46 46 49 50 49 43 37 32 34 30 31 31 34 35 32 32 37 38 38 39 35 38 39 36 40 41 35 37 37 35 31 32 29 24 30 30 31 32 31 33 33 32 33
45 44 47 49 49 48 41 33 32 32 31 31 32 32 30 33 35 38 36 36 38 38 35 37 39 39 41 38 37 33 35 33 33 30 32 29 29 33 32 32 32 33 33 32
44 44 47 49 48 47 40 39 37 34 32 31 31 30 32 32 33 36 40 39 37 38 38 39 40 42 46 46 44 37 36 35 37 30 31 34 30 30 32 33 33 33 32 34
45 46 47 48 48 46 42 39 37 32 29 30 30 30 30 32 36 34 38 42 39 40 44 47 46 45 46 46 45 46 42 38 37 35 35 30 35 37 32 32 34 35 35 35
47 47 48 48 48 46 44 41 37 33 28 31 32 33 32 32 32 33 35 37 39 43 43 39 36 35 37 41 43 43 43 42 34 34 34 37 37 38 38 36 34 37 35 35
47 48 48 48 48 46 44 42 41 37 31 26 33 32 34 32 32 34 36 38 39 42 41 37 32 31 34 33 38 43 42 43 38 32 32 31 33 36 40 40 35 36 35 35
47 48 46 47 46 47 43 41 40 37 28 31 31 31 32 35 32 34 37 37 37 41 37 34 32 32 36 32 33 37 39 38 34 32 32 34 36 35 38 34 33 34 35 35
47 47 46 46 45 46 40 38 41 37 29 30 36 36 34 34 34 31 34 36 37 37 34 35 32 32 35 34 36 35 34 32 32 32 32 31 36 35 33 35 35 37 37 39
47 47 47 46 46 46 41 37 42 39 33 30 36 36 36 36 37 36 36 34 34 35 36 37 37 34 36 33 30 38 34 36 33 35 34 39 38 34 37 36 33 34 39 40
46 46 46 47 46 45 41 39 40 38 36 32 35 29 37 39 39 40 33 34 37 37 41 39 38 34 36 33 32 36 38 38 37 38 39 40 41 39 36 36 34 35 40 39
46 46 46 46 46 45 43 39 40 38 36 26 24 37 35 37 39 39 39 37 38 39 38 33 35 34 38 33 35 35 38 39 38 36 37 38 40 39 36 35 37 39 39 39
44 45 44 44 44 45 43 42 42 42 35 27 31 36 35 37 37 38 38 37 36 36 33 32 33 38 37 34 35 35 39 38 36 34 37 36 37 37 36 36 36 39 37 38
43 44 44 44 44 43 39 32 41 43 42 34 27 32 34 35 37 37 36 37 36 37 33 33 35 40 37 34 33 37 40 40 39 38 39 36 37 36 33 34 37 38 37 37
44 45 45 44 44 41 37 34 38 42 40 32 26 25 34 35 35 34 35 37 38 37 35 35 35 37 38 33 31 36 41 41 38 40 35 33 32 29 30 32 33 35 30 31
41 41 42 42 41 40 37 40 42 43 37 34 29 28 30 36 31 31 33 32 32 32 33 35 34 37 35 32 36 39 41 41 40 38 35 31 29 28 27 28 28 26 25 27
41 40 41 39 36 33 35 40 41 41 37 30 30 22 18 35 32 32 32 32 30 33 31 32 34 32 30 33 35 39 39 40 40 33 32 30 28 25 24 24 23 24 25 26
41 40 36 29 35 40 40 36 33 32 32 33 29 34 26 33 32 31 31 32 30 27 30 33 31 30 33 33 30 36 31 30 29 27 27 26 25 26 25 23 24 24 26 28
36 32 31 38 40 35 34 29 29 31 29 32 32 32 30 34 30 29 32 28 30 24 27 27 28 26 27 29 27 25 24 28 30 29 30 28 28 25 24 26 28 30 30 31
34 33 35 35 32 30 28 26 28 28 27 29 31 32 33 33 35 30 30 27 29 24 29 26 24 27 28 29 31 32 32 32 32 32 33 33 34 34 33 32 32 33 33 31
38 34 30 28 25 16 21 19 23 23 29 31 32 30 32 33 34 29 29 25 23 29 24 24 25 28 30 31 31 32 32 32 32 33 33 33 34 34 33 32 31 31 32 30
26 23 12 18 16 21 22 23 23 29 32 32 31 30 30 29 27 27 22 25 25 20 18 20 27 29 30 31 32 31 31 31 31 31 30 29 31 31 32 33 32 32 31 31
24 23 17 18 22 23 25 26 27 30 34 32 30 29 27 26 22 25 22 18 17 20 17 25 28 30 30 30 30 30 29 29 30 31 30 29 29 30 30 32 32 31 31 28
25 25 21 22 22 19 19 22 24 33 28 27 27 24 21 22 24 20 15 17 14 19 26 26 29 29 29 29 29 29 30 31 30 30 30 30 29 29 29 31 32 32 32 32
26 24 23 28 26 21 24 24 27 32 26 18 24 16 17 22 19 18 22 16 26 30 28 26 28 29 28 27 28 27 29 29 30 30 30 30 31 31 31 30 31 32 31 28
Lifted_Index
3 3 2 2 1 0 0 1 1 1 1 1 2 2 3 3 3 3 2 1 2 3 3 3 4 5 6 6 5 4 4 4 3 3 3 2 2 1 1 1 1 2 2 2
3 3 3 2 1 0 1 1 2 2 1 1 2 2 2 2 2 2 2 2 2 2 2 2 3 4 5 5 4 4 3 3 2 2 3 2 2 2 2 2 2 2 2 2
3 3 3 1 0 0 1 2 2 2 2 2 2 2 2 2 2 2 2 2 2 2 1 1 2 3 4 4 3 3 3 2 2 2 3 3 3 2 2 2 2 2 3 3
4 3 3 1 0 1 2 2 2 2 2 2 2 2 2 2 2 2 2 2 3 2 1 1 2 2 2 2 3 3 3 3 3 3 3 3 3 2 2 2 2 2 3 3
4 4 3 1 1 1 2 2 2 2 2 2 2 2 2 2 2 1 1 2 3 2 2 1 1 1 1 1 2 3 3 3 3 3 3 3 3 3 3 3 3 3 3 3
4 4 2 1 1 2 2 2 2 2 2 2 2 2 3 2 2 1 1 2 2 2 2 1 1 1 1 1 1 2 2 3 3 3 3 3 3 4 3 3 3 3 3 3
4 3 2 1 1 2 2 2 2 2 1 1 2 2 3 3 2 2 2 2 2 2 1 1 1 1 1 1 1 1 2 2 2 2 2 2 3 4 4 4 3 3 3 2
3 2 1 1 1 2 2 2 2 2 1 1 1 2 2 3 3 3 3 2 2 2 1 1 1 1 1 2 2 2 2 2 1 1 1 2 3 4 3 3 3 3 2 2
2 2 1 1 2 2 3 3 3 2 2 1 1 1 1 2 3 4 4 3 3 2 1 1 1 1 2 2 2 2 2 2 1 1 1 1 3 3 2 2 2 2 2 2
2 2 1 2 2 3 3 3 3 2 2 2 1 1 1 2 3 3 3 3 3 2 1 1 1 1 2 2 2 2 2 2 1 1 1 1 2 2 1 1 2 2 1 1
2 2 2 2 2 2 3 3 3 2 2 2 2 1 1 2 2 3 3 3 2 2 2 1 1 1 2 2 2 1 1 1 1 1 1 1 2 2 2 2 2 2 2 2
2 2 2 2 2 2 3 3 3 2 2 2 2 2 2 2 2 3 3 3 3 3 2 1 1 1 1 2 2 1 1 1 2 2 2 2 2 3 3 2 2 3 3 2
3 2 2 1 1 2 3 3 3 2 2 2 2 2 2 2 3 3 4 4 4 4 3 2 1 1 1 1 2 2 2 2 2 3 3 3 3 3 3 3 3 3 3 3
3 2 2 1 1 2 3 3 3 3 3 2 2 2 3 3 3 3 4 4 5 5 5 3 2 1 1 1 2 2 2 3 3 3 3 2 2 3 3 3 3 3 3 3
3 3 2 2 2 2 3 3 3 3 2 2 2 2 2 2 3 3 3 4 5 5 5 4 2 2 1 2 2 2 2 2 3 3 2 2 2 2 2 3 3 3 3 3
3 2 2 2 2 3 3 3 3 3 2 2 2 2 2 2 2 2 3 4 5 5 5 4 3 2 2 1 1 1 1 2 2 2 2 2 2 2 2 2 3 3 3 3
3 3 2 2 2 3 2 2 2 2 2 2 1 1 1 1 1 1 2 3 4 4 4 4 3 2 1 1 1 1 1 1 2 1 1 1 2 2 2 2 2 2 3 3
4 3 2 2 2 2 2 2 2 2 2 1 1 1 1 1 1 1 2 3 4 4 3 3 2 2 1 1 2 2 2 2 2 1 1 1 1 2 2 2 2 2 3 3
4 4 3 3 3 3 2 2 2 2 1 1 1 1 1 1 1 2 2 2 3 3 2 2 2 1 1 1 2 2 2 2 2 2 1 1 1 1 2 2 2 2 3 3
3 3 3 3 3 3 3 2 2 2 2 2 2 2 1 2 2 2 2 2 2 2 2 2 1 2 2 2 2 2 2 2 2 2 1 1 1 1 1 2 2 3 4 4
3 3 3 3 3 3 3 2 2 2 2 2 2 2 2 2 2 2 2 2 2 1 1 2 1 2 2 2 1 1 2 2 2 2 1 1 1 1 2 3 4 4 5 5
2 2 2 3 3 3 2 2 2 2 2 3 3 3 3 3 3 3 3 2 2 2 2 1 1 2 2 2 1 1 1 2 2 2 2 2 2 3 3 4 5 6 6 7
2 2 2 2 3 3 2 2 2 2 2 3 3 3 3 4 3 3 3 2 2 2 2 1 2 2 2 2 2 2 2 2 3 3 4 4 4 5 5 6 6 7 7 7
1 1 2 3 3 3 3 3 2 2 2 3 3 4 4 4 4 4 3 3 3 3 2 2 3 3 3 3 3 3 3 3 4 5 5 6 6 6 6 7 7 7 7 7
1 1 2 3 3 4 3 3 3 2 2 3 3 4 4 4 4 4 4 3 3 3 3 4 4 5 4 4 4 4 5 5 5 6 6 7 7 7 7 6 6 6 6 7
1 1 2 2 3 3 3 2 2 2 2 3 3 4 4 4 4 4 4 4 4 4 4 4 5 5 5 5 6 6 6 6 7 7 7 7 7 7 7 7 6 6 6 7
1 1 1 2 2 2 2 2 2 2 2 2 3 3 4 4 4 4 4 4 4 4 4 4 5 5 5 6 6 6 6 7 8 8 8 8 8 8 8 7 7 6 6 7